Weather History for KCKC - March, 2013

Change the Weather History Date:

Tuesday, March 5, 2013

  Actual Average Record
Temperature  
Mean Temperature 16 °F -  
Max Temperature 21 °F 21 °F 39 °F (2005)
Min Temperature 12 °F 5 °F -18 °F (2015)
Degree Days  
Heating Degree Days 48    
Moisture  
Dew Point 6 °F    
Average Humidity 65    
Maximum Humidity 79    
Minimum Humidity 49    
Precipitation  
Precipitation 0.00 in - - ()
Sea Level Pressure  
Sea Level Pressure 30.15 in    
Wind  
Wind Speed 10 mph (North)    
Max Wind Speed 15 mph    
Max Gust Speed 22 mph    
Visibility 10 miles    
Events Snow    
Averages and records for this station are not official NWS values.
T = Trace of Precipitation, MM = Missing Value Source: NWS Daily Summary

Daily Weather History Graph

Daily Weather History Graph

Search for Another Location

Airport or City:

Trip Planner

Search our weather history database for the weather conditions in past years. The results will help you decide how hot, cold, wet, or windy it might be!

Date:

Astronomy

Mar. 05, 2013 Rise Set
Actual Time 6:34 AM CST 5:52 PM CST
Civil Twilight 6:03 AM CST 6:23 PM CST
Nautical Twilight 5:27 AM CST 6:59 PM CST
Astronomical Twilight 4:51 AM CST 7:35 PM CST
Moon 2:05 AM CST (3/5) 11:12 AM CST (3/5)
Length of Visible Light 12h 20m
Length of Day
11h 18m
Last Quarter, 40% of the Moon is Illuminated
Mar 5
Last Quarter
Mar 11
New
Mar 19
First Quarter
Mar 27
Full
Apr 2
Last Quarter

Hourly Weather History & Observations

Time (CST) Temp. Windchill Dew Point Humidity Pressure Visibility Wind Dir Wind Speed Gust Speed Precip Events Conditions
12:33 AM 15.8 °F 5.1 °F 8.6 °F 73% 30.13 in 10.0 mi NE 8.1 mph - N/A   Overcast
12:54 AM 15.8 °F 4.2 °F 8.6 °F 73% 30.13 in 10.0 mi NE 9.2 mph - N/A   Overcast
1:13 AM 15.8 °F 4.2 °F 8.6 °F 73% 30.13 in 10.0 mi NE 9.2 mph - N/A   Overcast
1:33 AM 15.8 °F 5.1 °F 8.6 °F 73% 30.13 in 10.0 mi NE 8.1 mph - N/A   Overcast
1:53 AM 15.8 °F 5.1 °F 8.6 °F 73% 30.12 in 10.0 mi NNE 8.1 mph - N/A   Overcast
2:14 AM 15.8 °F 3.4 °F 8.6 °F 73% 30.12 in 10.0 mi NE 10.4 mph - N/A   Overcast
2:33 AM 15.8 °F 3.4 °F 8.6 °F 73% 30.12 in 10.0 mi NE 10.4 mph - N/A   Overcast
2:53 AM 15.8 °F 4.2 °F 8.6 °F 73% 30.12 in 10.0 mi NE 9.2 mph - N/A   Overcast
3:14 AM 15.8 °F 4.2 °F 8.6 °F 73% 30.12 in 10.0 mi NNE 9.2 mph - N/A   Overcast
3:33 AM 15.8 °F 3.4 °F 8.6 °F 73% 30.11 in 10.0 mi NNE 10.4 mph - N/A   Overcast
3:53 AM 15.8 °F 2.1 °F 8.6 °F 73% 30.11 in 10.0 mi NE 12.7 mph - N/A   Overcast
4:14 AM 15.8 °F 1.4 °F 8.6 °F 73% 30.10 in 10.0 mi NE 13.8 mph 21.9 mph N/A   Overcast
5:14 AM 15.8 °F 1.4 °F 8.6 °F 73% 30.10 in 10.0 mi NE 13.8 mph 18.4 mph N/A   Overcast
5:33 AM 15.8 °F 2.1 °F 10.4 °F 79% 30.10 in 10.0 mi NNE 12.7 mph 19.6 mph N/A   Overcast
6:14 AM 14.0 °F -0.8 °F 8.6 °F 79% 30.11 in 10.0 mi NNE 13.8 mph 18.4 mph N/A   Overcast
6:34 AM 14.0 °F 2.0 °F 8.6 °F 79% 30.12 in 10.0 mi NNE 9.2 mph 12.7 mph N/A   Overcast
6:53 AM 14.0 °F -1.4 °F 8.6 °F 79% 30.12 in 10.0 mi NNE 15.0 mph - N/A   Overcast
7:14 AM 14.0 °F -0.2 °F 8.6 °F 79% 30.12 in 10.0 mi NNE 12.7 mph 19.6 mph N/A   Overcast
7:33 AM 14.0 °F 0.5 °F 8.6 °F 79% 30.12 in 10.0 mi NNE 11.5 mph 18.4 mph N/A   Overcast
7:53 AM 14.0 °F -0.8 °F 8.6 °F 79% 30.12 in 10.0 mi NNE 13.8 mph - N/A   Overcast
8:14 AM 14.0 °F 1.2 °F 8.6 °F 79% 30.12 in 10.0 mi NNE 10.4 mph 18.4 mph N/A   Overcast
8:33 AM 14.0 °F -0.2 °F 8.6 °F 79% 30.13 in 10.0 mi NNE 12.7 mph - N/A   Overcast
8:53 AM 14.0 °F -0.8 °F 8.6 °F 79% 30.14 in 10.0 mi NNE 13.8 mph 18.4 mph N/A   Overcast
9:14 AM 15.8 °F 2.7 °F 8.6 °F 73% 30.14 in 5.0 mi NNE 11.5 mph - N/A Snow Light Snow
9:34 AM 15.8 °F 2.1 °F 8.6 °F 73% 30.14 in 5.0 mi NNE 12.7 mph - N/A Snow Light Snow
9:53 AM 15.8 °F 2.7 °F 8.6 °F 73% 30.15 in 4.0 mi NNE 11.5 mph 18.4 mph N/A Snow Light Snow
10:14 AM 15.8 °F 2.1 °F 8.6 °F 73% 30.15 in 4.0 mi NNE 12.7 mph 19.6 mph N/A Snow Light Snow
10:33 AM 15.8 °F 4.2 °F 8.6 °F 73% 30.15 in 5.0 mi NNE 9.2 mph - N/A Snow Light Snow
10:53 AM 15.8 °F 5.1 °F 8.6 °F 73% 30.15 in 7.0 mi NNE 8.1 mph 11.5 mph N/A Snow Light Snow
11:14 AM 15.8 °F 3.4 °F 8.6 °F 73% 30.16 in 7.0 mi North 10.4 mph - N/A Snow Light Snow
11:33 AM 17.6 °F 5.7 °F 6.8 °F 63% 30.16 in 10.0 mi North 10.4 mph - N/A   Mostly Cloudy
11:53 AM 17.6 °F 5.0 °F 6.8 °F 63% 30.16 in 10.0 mi NNW 11.5 mph 16.1 mph N/A   Scattered Clouds
12:14 PM 17.6 °F 5.0 °F 6.8 °F 63% 30.15 in 10.0 mi North 11.5 mph 16.1 mph N/A   Scattered Clouds
12:34 PM 19.4 °F 7.9 °F 6.8 °F 58% 30.15 in 10.0 mi North 10.4 mph - N/A   Clear
12:53 PM 19.4 °F 9.5 °F 6.8 °F 58% 30.15 in 10.0 mi North 8.1 mph - N/A   Clear
1:14 PM 19.4 °F 7.9 °F 6.8 °F 58% 30.14 in 10.0 mi NNW 10.4 mph - N/A   Clear
1:33 PM 19.4 °F 8.6 °F 6.8 °F 58% 30.14 in 10.0 mi North 9.2 mph - N/A   Scattered Clouds
1:53 PM 19.4 °F 7.9 °F 6.8 °F 58% 30.14 in 10.0 mi North 10.4 mph - N/A   Mostly Cloudy
2:14 PM 19.4 °F 7.2 °F 6.8 °F 58% 30.14 in 10.0 mi North 11.5 mph 16.1 mph N/A   Mostly Cloudy
2:34 PM 19.4 °F 7.2 °F 6.8 °F 58% 30.13 in 10.0 mi North 11.5 mph - N/A   Overcast
2:53 PM 21.2 °F 8.9 °F 5.0 °F 50% 30.13 in 10.0 mi North 12.7 mph - N/A   Mostly Cloudy
3:14 PM 21.2 °F 8.9 °F 5.0 °F 50% 30.13 in 10.0 mi NNE 12.7 mph 18.4 mph N/A   Mostly Cloudy
3:34 PM 21.2 °F 10.1 °F 6.8 °F 54% 30.13 in 10.0 mi North 10.4 mph - N/A   Scattered Clouds
3:53 PM 21.2 °F 11.7 °F 5.0 °F 50% 30.14 in 10.0 mi North 8.1 mph - N/A   Clear
4:13 PM 21.2 °F 9.5 °F 5.0 °F 50% 30.14 in 10.0 mi North 11.5 mph - N/A   Clear
4:34 PM 19.4 °F 8.6 °F 5.0 °F 54% 30.15 in 10.0 mi North 9.2 mph - N/A   Scattered Clouds
4:53 PM 19.4 °F 8.6 °F 3.2 °F 49% 30.15 in 10.0 mi North 9.2 mph - N/A   Scattered Clouds
5:13 PM 19.4 °F 9.5 °F 3.2 °F 49% 30.15 in 10.0 mi NNW 8.1 mph - N/A   Scattered Clouds
5:34 PM 19.4 °F 9.5 °F 3.2 °F 49% 30.16 in 10.0 mi North 8.1 mph - N/A   Mostly Cloudy
5:53 PM 19.4 °F 9.5 °F 3.2 °F 49% 30.16 in 10.0 mi North 8.1 mph - N/A   Overcast
6:13 PM 17.6 °F 6.4 °F 3.2 °F 53% 30.17 in 10.0 mi North 9.2 mph - N/A   Overcast
6:34 PM 17.6 °F 7.3 °F 3.2 °F 53% 30.17 in 10.0 mi NNE 8.1 mph - N/A   Overcast
6:53 PM 17.6 °F 5.7 °F 3.2 °F 53% 30.18 in 10.0 mi North 10.4 mph - N/A   Overcast
7:14 PM 15.8 °F 2.1 °F 3.2 °F 58% 30.18 in 10.0 mi North 12.7 mph - N/A   Overcast
7:33 PM 15.8 °F 2.1 °F 3.2 °F 58% 30.18 in 10.0 mi North 12.7 mph 17.3 mph N/A   Overcast
7:54 PM 15.8 °F 4.2 °F 1.4 °F 53% 30.18 in 10.0 mi North 9.2 mph - N/A   Overcast
8:14 PM 15.8 °F 5.1 °F 1.4 °F 53% 30.18 in 10.0 mi North 8.1 mph - N/A   Overcast
8:33 PM 15.8 °F 4.2 °F 1.4 °F 53% 30.18 in 10.0 mi North 9.2 mph - N/A   Overcast
8:54 PM 14.0 °F 5.1 °F 1.4 °F 57% 30.18 in 10.0 mi NNW 5.8 mph - N/A   Overcast
9:13 PM 14.0 °F 2.9 °F 1.4 °F 57% 30.19 in 10.0 mi NNW 8.1 mph - N/A   Overcast
9:34 PM 14.0 °F 1.2 °F 1.4 °F 57% 30.19 in 10.0 mi North 10.4 mph - N/A   Overcast
9:53 PM 14.0 °F 2.9 °F 1.4 °F 57% 30.19 in 10.0 mi North 8.1 mph - N/A   Overcast
10:14 PM 14.0 °F 2.0 °F 1.4 °F 57% 30.20 in 10.0 mi NNW 9.2 mph - N/A   Overcast
10:34 PM 12.2 °F 0.7 °F 1.4 °F 62% 30.20 in 10.0 mi NNW 8.1 mph - N/A   Overcast
10:53 PM 12.2 °F -1.0 °F 1.4 °F 62% 30.21 in 10.0 mi NNW 10.4 mph - N/A   Overcast
11:14 PM 12.2 °F -1.0 °F 1.4 °F 62% 30.21 in 10.0 mi NNW 10.4 mph - N/A   Overcast
11:34 PM 12.2 °F -0.2 °F 3.2 °F 67% 30.21 in 10.0 mi NNW 9.2 mph - N/A   Overcast
11:53 PM 12.2 °F -1.8 °F 3.2 °F 67% 30.20 in 10.0 mi NNW 11.5 mph - N/A   Overcast